Flag for U.S.A. Weather past 2 weeks in Omaha, Nebraska, U.S.A.

Now
65 °F

Thundershowers. Passing clouds.


Feels Like: 65 °F
Forecast: 57 / 68 °F
Wind: 3 mph from North

Location: Millard Airport

Current Time: May 4, 2015 at 2:20:34 AM

Latest Report: May 4, 2015 at 1:55 AM


Visibility: 10 mi

Pressure: 29.92 "Hg

Humidity: 70%

Dew point: 55 °F

Location of OmahaLocation

Historic Weather in Omaha — Graph

°F

Omaha temperature yesterday

Maximum temperature yesterday: 81 °F (at 4:15 PM)
Minimum temperature yesterday: 60 °F (at 4:55 AM)
Average temperature yesterday: 70 °F

Past Weeks' High & Low Weather Summary

 TemperatureHumidityPressure
High81 °F (May 3, 4:15 PM)97% (Apr 19, 5:15 AM)30.22 "Hg (Apr 19, 5:15 AM)
Low33 °F (Apr 22, 6:15 AM)19% (Apr 20, 2:55 PM)29.45 "Hg (Apr 25, 2:35 AM)
Average56 °F59%29.92 "Hg
* Reported Apr 19 1:15 AM — May 4 1:15 AM, Omaha, Weather by CustomWeather, © 2015

Note: Actual official high and low records may vary slightly from our data, if they occured in-between our weather recording intervals... More about our weather records

Advertising

Omaha weather history for previous 24 hours

 ConditionsComfort  
Time TempWeatherWind HumidityBarometerVisibility
1:15 AM
Mon, May 4
68 °FPassing clouds.No wind60%29.92 "Hg10 mi
12:55 AM67 °FThundershowers. Passing clouds.3 mph61%29.91 "Hg10 mi
12:35 AM68 °FThundershowers. Clear.6 mph60%29.91 "Hg10 mi
12:15 AM67 °FThundershowers. Clear.6 mph65%29.87 "Hg10 mi
11:55 PM
Sun, May 3
67 °FThundershowers. Passing clouds.8 mph68%29.88 "Hg10 mi
11:35 PM69 °FPassing clouds.7 mph66%29.85 "Hg10 mi
11:15 PM69 °FThundershowers. Partly cloudy.3 mph70%29.84 "Hg10 mi
10:55 PM69 °FLight rain. Overcast.6 mph71%29.83 "Hg10 mi
10:15 PM72 °FLight rain. Partly cloudy.6 mph63%29.84 "Hg10 mi
9:55 PM68 °FThundershowers. Passing clouds.5 mph83%29.82 "Hg10 mi
9:35 PM67 °FLight rain. Passing clouds.3 mph84%29.81 "Hg10 mi
9:15 PM75 °FScattered clouds.7 mph54%29.79 "Hg10 mi
8:55 PM76 °FScattered clouds.5 mph52%29.76 "Hg10 mi
8:15 PM75 °FSunny.5 mph59%29.74 "Hg10 mi
7:55 PM78 °FThunderstorms. Sunny.7 mph53%29.74 "Hg10 mi
7:35 PM80 °FThundershowers. Scattered clouds.7 mph50%29.73 "Hg10 mi
7:15 PM76 °FThundershowers. Overcast.10 mph57%29.78 "Hg10 mi
6:55 PM77 °FThundershowers. Overcast.3 mph54%29.74 "Hg10 mi
6:15 PM78 °FSunny.No wind50%29.73 "Hg10 mi
5:55 PM77 °FScattered clouds.No wind57%29.73 "Hg10 mi
5:35 PM78 °FSunny.No wind53%29.72 "Hg10 mi
5:15 PM78 °FSunny.No wind49%29.71 "Hg10 mi
4:55 PM78 °FSunny.6 mph51%29.71 "Hg10 mi
4:35 PM80 °FSunny.5 mph47%29.72 "Hg10 mi
4:15 PM81 °FSunny.No wind48%29.73 "Hg10 mi
3:55 PM79 °FSunny.3 mph53%29.73 "Hg10 mi
3:35 PM79 °FSunny.7 mph54%29.73 "Hg10 mi
3:15 PM78 °FSunny.3 mph57%29.74 "Hg10 mi
2:55 PM79 °FSunny.No wind55%29.74 "Hg10 mi
2:35 PM77 °FSunny.6 mph60%29.73 "Hg10 mi
2:15 PM79 °FSunny.7 mph53%29.74 "Hg10 mi
1:55 PM80 °FSunny.8 mph51%29.74 "Hg10 mi
1:35 PM80 °FSunny.6 mph53%29.74 "Hg10 mi
1:15 PM80 °FSunny.8 mph51%29.75 "Hg10 mi
12:55 PM80 °FSunny.10 mph52%29.75 "Hg10 mi
12:35 PM79 °FSunny.9 mph52%29.76 "Hg10 mi
12:15 PM78 °FSunny.9 mph53%29.75 "Hg10 mi
11:55 AM77 °FSunny.10 mph56%29.75 "Hg10 mi
11:35 AM76 °FSunny.12 mph57%29.75 "Hg10 mi
11:15 AM75 °FSunny.12 mph60%29.75 "Hg10 mi
10:55 AM74 °FSunny.8 mph63%29.75 "Hg10 mi
10:35 AM73 °FSunny.12 mph65%29.74 "Hg10 mi
10:15 AM71 °FSunny.10 mph66%29.74 "Hg10 mi
9:55 AM70 °FSunny.12 mph69%29.74 "Hg10 mi
9:35 AM69 °FSunny.8 mph70%29.74 "Hg10 mi
9:15 AM68 °FSunny.12 mph71%29.74 "Hg10 mi
8:55 AM67 °FSunny.10 mph72%29.75 "Hg10 mi
8:35 AM66 °FSunny.10 mph73%29.75 "Hg10 mi
8:15 AM65 °FSunny.12 mph73%29.75 "Hg10 mi
7:55 AM65 °FSunny.10 mph75%29.75 "Hg10 mi
7:35 AM64 °FSunny.10 mph74%29.75 "Hg10 mi
7:15 AM63 °FClear.10 mph77%29.74 "Hg10 mi
6:55 AM63 °FClear.10 mph78%29.74 "Hg10 mi
6:35 AM62 °FClear.9 mph81%29.74 "Hg10 mi
6:15 AM62 °FClear.8 mph81%29.75 "Hg10 mi
5:55 AM61 °FClear.6 mph81%29.75 "Hg10 mi
5:35 AM61 °FClear.7 mph82%29.76 "Hg10 mi
5:15 AM60 °FClear.8 mph87%29.76 "Hg10 mi
4:55 AM60 °FClear.5 mph89%29.76 "Hg10 mi
4:35 AM60 °FClear.5 mph87%29.78 "Hg10 mi
4:15 AM60 °FPassing clouds.3 mph89%29.77 "Hg10 mi
3:55 AM61 °FPassing clouds.12 mph89%29.78 "Hg10 mi
3:35 AM61 °FLight rain. Mostly cloudy.5 mph89%29.80 "Hg10 mi
3:15 AM61 °FThunderstorms. Overcast.5 mph87%29.81 "Hg10 mi
2:55 AM60 °FThundershowers. Overcast.5 mph89%29.82 "Hg10 mi
2:35 AM60 °FThunderstorms. Passing clouds.No wind90%29.83 "Hg10 mi
2:15 AM60 °FThunderstorms. Partly cloudy.7 mph90%29.83 "Hg10 mi
Weather by CustomWeather, © 2015

See weather overviewHow to use our weather pages